Location: Chevoux
(46.3801°N, 4.9476°E)
Time: 20:38:54
(UTC+00:00)

ISS - Pass Details

Date: 27 April 2021
Orbit: 418 x 421 km, 51.6° (Epoch: 07 May)

Event Time Altitude Azimuth Distance (km) Brightness Sun altitude
Exits shadow 03:01:01 11° 170° (S) 1,443 -1.3 -14.5°
Maximum altitude 03:02:52 16° 135° (SE) 1,207 -1.4 -14.2°
Drops below altitude 10° 03:04:58 10° 96° (E) 1,503 -0.3 -13.9°
Sets 03:07:40 0° 74° (ENE) 2,373 1.5 -13.6°
